When you browse on this site, cookies collect data to enhance your experience and personalize the content and advertising you see.
Visit our Privacy Policy to learn more. By continuing to use the site, you agree to this use of cookies and data.
  • In Italy
  • List of Countries
  • For 7 days
  • Water Temperature
  • Satellite Maps
  • Weather Map
  • Weather Widgets
  • user-avatar
    Login

    Hourly Weather Belyaevo

    Today, 16 January, Wednesday

    Time Temperature Precipitation Wind Pressure Humidity
    00:00 -12°C° 0 mm 3 mps 734 mmHg 96%
    01:00 -12°C° 0 mm 3 mps 733 mmHg 96%
    02:00 -10°C° 0 mm 3 mps 733 mmHg 96%
    03:00 -11°C° 0 mm 4 mps 733 mmHg 95%
    04:00 -11°C° 0 mm 4 mps 733 mmHg 95%
    05:00 -11°C° 0 mm 4 mps 733 mmHg 94%
    06:00 -10°C° 0 mm 3 mps 733 mmHg 95%
    07:00 -10°C° 0 mm 3 mps 733 mmHg 96%
    08:00 -12°C° 0 mm 3 mps 733 mmHg 96%
    09:00 -10°C° 0 mm 3 mps 733 mmHg 95%
    10:00 -9°C° 0 mm 3 mps 734 mmHg 94%
    11:00 -8°C° 0 mm 3 mps 734 mmHg 94%
    12:00 -7°C° 0.1 mm 3 mps 734 mmHg 92%
    13:00 -7°C° 0.1 mm 3 mps 734 mmHg 89%
    14:00 -7°C° 0.1 mm 3 mps 735 mmHg 87%
    15:00 -8°C° 0 mm 3 mps 735 mmHg 89%
    16:00 -9°C° 0 mm 3 mps 736 mmHg 90%
    17:00 -10°C° 0 mm 3 mps 736 mmHg 92%
    18:00 -10°C° 0 mm 3 mps 737 mmHg 92%
    19:00 -10°C° 0 mm 3 mps 737 mmHg 93%
    20:00 -11°C° 0 mm 4 mps 738 mmHg 93%
    21:00 -11°C° 0 mm 4 mps 738 mmHg 94%
    22:00 -12°C° 0 mm 3 mps 739 mmHg 94%
    23:00 -12°C° 0 mm 3 mps 739 mmHg 95%

    Tomorrow, 17 January, Thursday

    Time Temperature Precipitation Wind Pressure Humidity
    00:00 -12°C° 0 mm 3 mps 740 mmHg 94%
    01:00 -13°C° 0 mm 3 mps 740 mmHg 94%
    02:00 -13°C° 0 mm 3 mps 741 mmHg 93%
    03:00 -13°C° 0 mm 3 mps 741 mmHg 94%
    04:00 -14°C° 0 mm 3 mps 741 mmHg 94%
    05:00 -14°C° 0 mm 3 mps 741 mmHg 95%
    06:00 -14°C° 0 mm 4 mps 741 mmHg 95%
    07:00 -12°C° 0 mm 4 mps 741 mmHg 95%
    08:00 -12°C° 0 mm 5 mps 741 mmHg 94%
    09:00 -11°C° 0 mm 5 mps 741 mmHg 93%
    10:00 -11°C° 0 mm 6 mps 741 mmHg 92%
    11:00 -11°C° 0 mm 7 mps 741 mmHg 90%
    12:00 -9°C° 0.2 mm 7 mps 741 mmHg 91%
    13:00 -9°C° 0.2 mm 7 mps 740 mmHg 91%
    14:00 -8°C° 0.2 mm 8 mps 740 mmHg 91%
    15:00 -7°C° 0.2 mm 8 mps 739 mmHg 91%
    16:00 -6°C° 0.2 mm 8 mps 739 mmHg 91%
    17:00 -5°C° 0.2 mm 8 mps 739 mmHg 90%
    18:00 -5°C° 0.1 mm 8 mps 738 mmHg 90%
    19:00 -5°C° 0.1 mm 9 mps 738 mmHg 89%
    20:00 -4°C° 0.1 mm 9 mps 737 mmHg 88%
    21:00 -4°C° 0.1 mm 8 mps 737 mmHg 88%
    22:00 -2°C° 0.1 mm 8 mps 737 mmHg 88%
    23:00 -2°C° 0.1 mm 8 mps 737 mmHg 88%

    Day after tomorrow, 18 January, Friday

    Time Temperature Precipitation Wind Pressure Humidity
    00:00 -2°C° 0 mm 7 mps 738 mmHg 88%
    01:00 -2°C° 0 mm 7 mps 738 mmHg 88%
    02:00 -2°C° 0 mm 7 mps 738 mmHg 89%
    03:00 -2°C° 0 mm 7 mps 738 mmHg 89%
    04:00 -2°C° 0 mm 7 mps 738 mmHg 89%
    05:00 -3°C° 0 mm 7 mps 738 mmHg 89%
    06:00 -3°C° 0 mm 6 mps 738 mmHg 89%
    07:00 -3°C° 0 mm 6 mps 738 mmHg 90%
    08:00 -3°C° 0 mm 6 mps 738 mmHg 91%
    09:00 -3°C° 0 mm 6 mps 738 mmHg 91%
    10:00 -2°C° 0 mm 6 mps 738 mmHg 92%
    11:00 -2°C° 0 mm 6 mps 738 mmHg 93%
    12:00 -2°C° 0.1 mm 6 mps 738 mmHg 92%
    13:00 -2°C° 0.1 mm 6 mps 738 mmHg 92%
    14:00 -2°C° 0.1 mm 6 mps 737 mmHg 91%
    15:00 -2°C° 0.3 mm 6 mps 737 mmHg 92%
    16:00 -2°C° 0.3 mm 6 mps 737 mmHg 92%
    17:00 -2°C° 0.3 mm 6 mps 737 mmHg 92%
    18:00 -2°C° 0.3 mm 6 mps 737 mmHg 91%
    19:00 -2°C° 0.3 mm 6 mps 737 mmHg 91%
    20:00 -2°C° 0.3 mm 6 mps 737 mmHg 90%
    21:00 -4°C° 0 mm 6 mps 737 mmHg 89%
    22:00 -5°C° 0 mm 6 mps 737 mmHg 87%
    23:00 -6°C° 0 mm 6 mps 738 mmHg 86%

    19 January, Saturday

    Time Temperature Precipitation Wind Pressure Humidity
    00:00 -7°C° 0 mm 7 mps 738 mmHg 84%
    01:00 -8°C° 0 mm 7 mps 739 mmHg 83%
    02:00 -8°C° 0 mm 8 mps 740 mmHg 82%
    03:00 -9°C° 0 mm 7 mps 741 mmHg 83%
    04:00 -9°C° 0 mm 6 mps 741 mmHg 83%
    05:00 -10°C° 0 mm 6 mps 742 mmHg 84%
    06:00 -10°C° 0 mm 5 mps 743 mmHg 86%
    07:00 -11°C° 0 mm 5 mps 743 mmHg 88%
    08:00 -11°C° 0 mm 5 mps 744 mmHg 90%
    09:00 -11°C° 0 mm 5 mps 745 mmHg 88%
    10:00 -10°C° 0 mm 5 mps 745 mmHg 87%
    11:00 -9°C° 0 mm 6 mps 745 mmHg 85%
    12:00 -9°C° 0 mm 6 mps 745 mmHg 85%
    13:00 -8°C° 0 mm 5 mps 746 mmHg 85%
    14:00 -8°C° 0 mm 5 mps 746 mmHg 84%
    15:00 -8°C° 0 mm 5 mps 746 mmHg 85%
    16:00 -8°C° 0 mm 5 mps 746 mmHg 87%
    17:00 -10°C° 0 mm 5 mps 747 mmHg 88%
    18:00 -10°C° 0 mm 5 mps 747 mmHg 89%
    19:00 -9°C° 0 mm 4 mps 747 mmHg 89%
    20:00 -9°C° 0 mm 4 mps 747 mmHg 90%
    21:00 -9°C° 0 mm 4 mps 748 mmHg 91%
    22:00 -9°C° 0 mm 4 mps 748 mmHg 91%
    23:00 -9°C° 0 mm 4 mps 748 mmHg 92%

    20 January, Sunday

    Time Temperature Precipitation Wind Pressure Humidity
    00:00 -9°C° 0 mm 4 mps 748 mmHg 92%
    01:00 -10°C° 0 mm 4 mps 748 mmHg 93%
    02:00 -10°C° 0 mm 4 mps 749 mmHg 93%
    03:00 -11°C° 0 mm 4 mps 748 mmHg 93%
    04:00 -11°C° 0 mm 4 mps 748 mmHg 94%
    05:00 -12°C° 0 mm 4 mps 748 mmHg 94%
    06:00 -13°C° 0 mm 5 mps 748 mmHg 93%
    07:00 -14°C° 0 mm 5 mps 748 mmHg 92%
    08:00 -14°C° 0 mm 5 mps 748 mmHg 90%
    09:00 -14°C° 0 mm 5 mps 748 mmHg 89%
    10:00 -14°C° 0 mm 6 mps 748 mmHg 87%
    11:00 -12°C° 0 mm 6 mps 748 mmHg 85%
    12:00 -11°C° 0 mm 6 mps 748 mmHg 86%
    13:00 -11°C° 0 mm 5 mps 748 mmHg 87%
    14:00 -11°C° 0 mm 5 mps 747 mmHg 88%
    15:00 -12°C° 0 mm 5 mps 747 mmHg 90%
    16:00 -11°C° 0 mm 4 mps 747 mmHg 91%
    17:00 -12°C° 0 mm 4 mps 747 mmHg 93%
    18:00 -12°C° 0.1 mm 4 mps 747 mmHg 94%
    19:00 -12°C° 0.1 mm 3 mps 747 mmHg 94%
    20:00 -12°C° 0.1 mm 3 mps 747 mmHg 95%
    21:00 -12°C° 0 mm 3 mps 747 mmHg 96%
    22:00 -13°C° 0 mm 3 mps 747 mmHg 96%
    23:00 -13°C° 0 mm 2 mps 747 mmHg 97%

    21 January, Monday

    Time Temperature Precipitation Wind Pressure Humidity
    00:00 -12°C° 0 mm 2 mps 747 mmHg 97%
    01:00 -12°C° 0 mm 2 mps 747 mmHg 97%
    02:00 -12°C° 0 mm 2 mps 747 mmHg 97%
    03:00 -12°C° 0 mm 2 mps 747 mmHg 97%
    04:00 -12°C° 0 mm 2 mps 747 mmHg 97%
    05:00 -12°C° 0 mm 2 mps 747 mmHg 97%
    06:00 -12°C° 0 mm 2 mps 747 mmHg 97%
    07:00 -13°C° 0 mm 2 mps 747 mmHg 97%
    08:00 -13°C° 0 mm 2 mps 748 mmHg 97%
    09:00 -12°C° 0 mm 2 mps 748 mmHg 96%
    10:00 -12°C° 0 mm 3 mps 748 mmHg 95%
    11:00 -10°C° 0 mm 3 mps 748 mmHg 94%
    12:00 -10°C° 0 mm 3 mps 748 mmHg 92%
    13:00 -11°C° 0 mm 4 mps 748 mmHg 91%
    14:00 -11°C° 0 mm 4 mps 748 mmHg 89%
    15:00 -12°C° 0 mm 4 mps 749 mmHg 89%
    16:00 -12°C° 0 mm 4 mps 749 mmHg 90%
    17:00 -13°C° 0 mm 3 mps 749 mmHg 91%
    18:00 -14°C° 0 mm 3 mps 749 mmHg 92%
    19:00 -16°C° 0 mm 3 mps 750 mmHg 93%
    20:00 -17°C° 0 mm 3 mps 750 mmHg 94%
    21:00 -18°C° 0 mm 3 mps 750 mmHg 95%
    22:00 -18°C° 0 mm 3 mps 750 mmHg 96%
    23:00 -19°C° 0 mm 3 mps 750 mmHg 97%
    Show more